Location: Unspecified
(0.0000°N, 0.0000°E)
Time: 21:03:53
(UTC+00:00)

Vanguard 2 - Visible Passes

Search period start: 19 April 2015 00:00
Search period end: 29 April 2015 00:00
Orbit: 554 x 2944 km, 32.9° (Epoch: 18 April)

Date Brightness Start Highest point End Pass type
(mag) Time Alt. Az. Time Alt. Az. Time Alt. Az.
19 Apr 10.0 03:44:39 22° S 03:46:50 25° SSE 03:52:21 10° ESE visible
19 Apr 10.6 18:50:59 10° WNW 19:04:24 54° SSW 19:21:30 10° SE visible
19 Apr 11.3 21:06:45 10° WSW 21:19:58 25° SSW 21:22:59 24° S visible
20 Apr 9.4 04:02:50 26° SSW 04:06:31 36° SSE 04:12:16 10° E visible
20 Apr 10.9 19:10:54 10° W 19:24:12 43° SSW 19:39:24 12° SE visible
20 Apr 11.4 21:28:34 10° WSW 21:40:31 20° SSW 21:40:54 20° SSW visible
21 Apr 11.0 02:19:29 13° SE 02:19:29 13° SE 02:20:29 10° ESE visible
21 Apr 8.8 04:21:00 27° SW 04:25:57 54° SSE 04:31:44 10° ENE visible
21 Apr 11.1 19:31:16 10° W 19:44:14 34° SSW 19:57:15 14° SSE visible
21 Apr 11.6 21:50:43 10° SW 21:58:44 17° SSW 21:58:44 17° SSW visible
22 Apr 10.5 02:37:38 22° SE 02:37:38 22° SE 02:41:00 10° ESE visible
22 Apr 8.3 04:39:10 24° SW 04:45:07 84° SSE 04:50:51 10° ENE visible
22 Apr 11.3 19:52:08 10° WSW 20:04:31 27° SSW 20:15:01 15° SSE visible
22 Apr 11.7 22:12:42 10° SW 22:16:30 14° SSW 22:16:30 14° SSW visible
23 Apr 9.9 02:55:47 34° SE 02:55:47 34° SE 03:01:00 10° E visible
23 Apr 8.4 04:57:17 18° WSW 05:04:04 63° NW 05:09:37 10° NE visible
23 Apr 10.7 17:58:04 10° W 18:09:17 45° SSW 18:25:08 10° SE visible
23 Apr 11.4 20:13:28 10° WSW 20:25:01 22° SSW 20:32:43 16° SSE visible
23 Apr 11.9 22:34:00 10° SSW 22:34:12 10° SSW 22:34:12 10° SSW visible
24 Apr 9.3 03:13:53 51° SE 03:13:53 51° SE 03:20:36 10° ENE visible
24 Apr 8.9 05:15:23 12° WSW 05:22:52 39° NW 05:28:03 10° NNE visible
24 Apr 11.0 18:18:07 10° W 18:29:13 35° SSW 18:43:57 10° SE visible
24 Apr 11.5 20:35:11 10° SW 20:45:44 19° S 20:50:23 17° S visible
25 Apr 8.8 03:31:56 71° S 03:32:38 73° SSE 03:39:49 10° ENE visible
25 Apr 11.2 18:38:38 10° WSW 18:49:23 28° SSW 19:02:45 10° SSE visible
25 Apr 11.5 20:56:56 10° SW 21:06:37 17° S 21:07:59 16° S visible
26 Apr 11.1 01:48:27 13° E 01:48:27 13° E 01:49:18 10° E visible
26 Apr 8.7 03:49:57 63° WSW 03:51:43 79° NW 03:58:44 10° NE visible
26 Apr 11.3 18:59:37 10° WSW 19:09:46 22° SSW 19:21:40 10° SSE visible
26 Apr 11.6 21:18:13 10° SSW 21:25:32 16° S 21:25:32 16° S visible
27 Apr 10.6 02:06:25 23° E 02:06:25 23° E 02:09:03 10° ENE visible
27 Apr 9.0 04:07:54 44° W 04:10:36 54° NW 04:17:21 10° NE visible
27 Apr 11.5 19:21:00 10° SW 19:30:23 18° S 19:40:51 10° SSE visible
27 Apr 11.7 21:38:42 10° SSW 21:43:04 15° SSW 21:43:04 15° SSW visible
28 Apr 10.1 02:24:19 35° ENE 02:24:19 35° ENE 02:28:25 10° ENE visible
28 Apr 9.4 04:25:48 29° WNW 04:29:25 36° NW 04:35:42 10° NNE visible
28 Apr 11.5 19:42:31 10° SW 19:51:09 16° S 19:59:06 12° SSE visible
28 Apr 11.7 21:58:26 10° SSW 22:00:34 13° SSW 22:00:34 13° SSW visible
